Regional Weather Roundup
Issued by NWS

Home | Current Version | Previous Version | Graphics & Text | Print | Product List | Glossary On
Versions: 1 2 3 4 5 6 7 8 9 10 11 12 13 14 15 16 17 18 19 20 21 22 23 24 25 26 27 28 29 30 31 32 33 34 35 36 37 38 39 40 41 42 43 44 45 46 47 48 49
000
ASUS45 KBOU 202207
RWRCO

WEATHER ROUNDUP FOR COLORADO
NATIONAL WEATHER SERVICE DENVER/BOULDER CO
300 PM MST THU NOV 20 2014

NOTE: "FAIR" INDICATES FEW OR NO CLOUDS BELOW 12000 FEET WITH NO
SIGNIFICANT WEATHER AND/OR OBSTRUCTIONS TO VISIBILITY.

COZ001>005-013-030-031-202300-
...NORTHWEST COLORADO...

CITY           SKY/WX    TMP DP  RH WIND       PRES   REMARKS
CRAIG          CLOUDY    42  17  36 NE7       30.06S
HAYDEN         CLOUDY    37  19  48 CALM      30.06S
MEEKER         CLOUDY    46  15  28 CALM      30.04S
MOUNT WERNER   NOT AVBL
STEAMBOAT SPGS CLOUDY    33  17  51 CALM      30.06F
WALDEN         CLOUDY    36  12  38 S9G16     30.04S
$$

COZ006>008-011-202300-
...WEST CENTRAL VALLEYS...

CITY           SKY/WX    TMP DP  RH WIND       PRES   REMARKS
GRAND JUNCTION CLOUDY    43  13  29 NW3       30.08S
MONTROSE       CLOUDY    42  16  34 W5        30.09R
EAGLE          MOSUNNY   37  14  38 CALM      30.09F
RIFLE          CLOUDY    42  18  37 SW5       30.07S
DELTA          CLOUDY    45  14  28 SW3       30.08S
NUCLA          CLOUDY    43  12  28 NE5       30.12S
$$

COZ017>023-064>068-202300-
...SOUTHWEST COLORADO...

CITY           SKY/WX    TMP DP  RH WIND       PRES   REMARKS
DURANGO        PTSUNNY   46  12  25 VRB5      30.06F
CORTEZ         CLOUDY    49  10  20 CALM      30.07F
PAGOSA SPRINGS PTSUNNY   41  11  28 CALM      30.09S
TELLURIDE      CLOUDY    35  13  40 W13       30.11R WCI  27
WOLF CREEK PAS CLOUDY    23  18  80 SW10      30.13S WCI  12
$$

COZ009-010-012-014-032>034-037-058>063-202300-
...CENTRAL COLORADO...

CITY           SKY/WX    TMP DP  RH WIND       PRES   REMARKS
ASPEN          MOSUNNY   39   9  29 N7        30.06R
BUENA VISTA    PTSUNNY   47   4  17 S3        30.00F
COPPER MTN     PTSUNNY   30   7  37 W13       30.12S WCI  20
BERTHOUD PASS  CLOUDY    18  12  79 N12G22    30.12S WCI   5
COTTONWOOD PAS PTSUNNY   43  -2  15 N3        30.05F
GUNNISON       PTSUNNY   28  10  47 CALM      30.13S
KREMMLING      CLOUDY    32  10  40 CALM      30.10S
LEADVILLE      CLOUDY    35   7  31 N8        30.05S WCI  29
MONARCH PASS   CLOUDY    23   5  46 SW15      30.22R WCI  10
SALIDA         CLOUDY    47  -1  13 SW14G22   30.07S
SUNLIGHT       CLOUDY    30  14  51 CALM      30.12S
WILKERSON PASS PTSUNNY   32   5  32 CALM      30.11R
$$

COZ069>075-202300-
...SAN LUIS VALLEY/SANGRE DE CRISTO MOUNTAINS...

CITY           SKY/WX    TMP DP  RH WIND       PRES   REMARKS
ALAMOSA        PTSUNNY   42   6  22 CALM      30.04F
LA VETA PASS   CLOUDY    34   9  35 SW7G16    30.07R WCI  28
SAGUACHE       PTSUNNY   41  10  28 S7        30.06F
$$

COZ035-036-038>040-202300-
...NORTHERN COLORADO FRONT RANGE...

CITY           SKY/WX    TMP DP  RH WIND       PRES   REMARKS
DENVER INTL AP CLOUDY    47  23  38 NW5       29.94S
DMNS CITY PARK   N/A     48  20  33 NW5       29.94S
AURORA         PTSUNNY   46  25  43 N7        29.95R
FRONT RANGE AP NOT AVBL
ERIE MUNI ARPT PTSUNNY   48  20  33 N5        29.96R
BOULDER MUN AP PTSUNNY   45  21  39 CALM      29.95R
CENTENNIAL     PTSUNNY   49  23  36 N9        29.94R
BROOMFIELD     PTSUNNY   50  19  29 NE3       29.95S
FORT COLLINS   PTSUNNY   46  23  39 SE5       29.97R
LONGMONT       PTSUNNY   48  22  35 CALM      29.97R
$$

COZ041-046-047-076>085-087-088-202300-
...PIKES PEAK/PALMER DIVIDE AND SOUTHERN FOOTHILLS...

CITY           SKY/WX    TMP DP  RH WIND       PRES   REMARKS
COLO. SPRINGS  MOSUNNY   50  10  20 SE12      29.98R
A. F. ACADEMY  MOSUNNY   51   6  16 S13       29.97R
ELLICOTT       MOSUNNY   47  12  24 SE12      29.97R
FALCON         NOT AVBL
FORT CARSON    MOSUNNY   49  16  26 SE9       29.96R
LIMON          MOSUNNY   51  10  19 S15       29.96F
MONUMENT HILL  CLOUDY    46   9  21 S13       29.96S
TRINIDAD       MOSUNNY   50  20  30 NE8       29.95S
$$

COZ042>045-048>051-090-091-202300-
...NORTHEAST COLORADO...

CITY           SKY/WX    TMP DP  RH WIND       PRES   REMARKS
GREELEY ARPT   MOSUNNY   48  19  32 W3        29.96S
AKRON          SUNNY     53  13  20 SE13      29.95S
BURLINGTON     MOSUNNY   51  13  21 SE13      29.98R
WRAY           SUNNY     55  16  20 SE7       29.98S
STERLING       SUNNY     57  23  26 W5        29.94S
HOLYOKE        SUNNY     54  18  24 SE6       29.96S
FORT MORGAN    SUNNY     55  13  19 S3        29.95S
$$

COZ086-089-092>099-202300-
...SOUTHEAST COLORADO...

CITY           SKY/WX    TMP DP  RH WIND       PRES   REMARKS
PUEBLO         MOSUNNY   49  26  41 SE7       29.95R
LA JUNTA       SUNNY     50  26  39 E8        29.95F
LAMAR          SUNNY     54  26  34 SE10      29.95S
SPRINGFIELD      N/A     50  23  34 SE9       29.97R
$$



USA.gov is the U.S. government's official web portal to all federal, state and local government web resources and services.